This is the latest recevied weather packets stored in our database for station/object EA1FWM-13. If no packets are shown the sender has not sent any weather packets the latest 10 day(s).
| Time | Temp. | Humidity | Pressure | Rain* | Wind** | Luminosity | Snow |
|---|---|---|---|---|---|---|---|
| 1777778510 | 10.56° C | 95% | 1016.2 hPa | - | - | - | - |
| 1777777609 | 10.56° C | 94% | 1016.1 hPa | - | - | - | - |
| 1777776708 | 11.11° C | 95% | 1016.2 hPa | - | - | - | - |
| 1777775807 | 11.11° C | 95% | 1016.2 hPa | - | - | - | - |
| 1777774906 | 11.11° C | 95% | 1016.4 hPa | - | - | - | - |
| 1777774005 | 11.67° C | 95% | 1016.4 hPa | - | - | - | - |
| 1777773104 | 11.11° C | 95% | 1016.5 hPa | - | - | - | - |
| 1777772204 | 11.67° C | 95% | 1016.6 hPa | - | - | - | - |
| 1777771303 | 12.22° C | 95% | 1016.7 hPa | - | - | - | - |
| 1777770402 | 11.67° C | 95% | 1016.9 hPa | - | - | - | - |
| 1777769501 | 12.22° C | 95% | 1017.1 hPa | - | - | - | - |
| 1777768600 | 12.22° C | 95% | 1017.3 hPa | - | - | - | - |
| 1777767699 | 12.78° C | 95% | 1017.4 hPa | - | - | - | - |
| 1777766798 | 12.78° C | 95% | 1017.5 hPa | - | - | - | - |
| 1777765898 | 12.78° C | 95% | 1017.6 hPa | - | - | - | - |
| 1777764997 | 12.78° C | 94% | 1017.7 hPa | - | - | - | - |
| 1777764095 | 12.78° C | 95% | 1017.7 hPa | - | - | - | - |
| 1777763194 | 12.78° C | 95% | 1017.7 hPa | - | - | - | - |
| 1777762292 | 12.78° C | 94% | 1017.6 hPa | - | - | - | - |
| 1777761391 | 12.78° C | 94% | 1017.7 hPa | - | - | - | - |
| 1777760490 | 12.78° C | 94% | 1017.8 hPa | - | - | - | - |
| 1777759590 | 12.78° C | 94% | 1017.9 hPa | - | - | - | - |
| 1777758689 | 12.22° C | 94% | 1017.9 hPa | - | - | - | - |
| 1777757788 | 12.22° C | 93% | 1018 hPa | - | - | - | - |
| 1777756887 | 12.78° C | 93% | 1018 hPa | - | - | - | - |
* Rain since midnight (hover to see other rain measurements)
** Current wind speed in m/s (hover to see current wind gust speed)